Weather History for Homer, AK

Change the Weather History Date:

Friday, May 3, 2013

  Actual Average Record
Temperature  
Mean Temperature 41 °F -  
Max Temperature 46 °F 47 °F 59 °F (1997)
Min Temperature 37 °F 33 °F 16 °F (1945)
Degree Days  
Heating Degree Days 24    
Moisture  
Dew Point 33 °F    
Average Humidity 77    
Maximum Humidity 93    
Minimum Humidity 63    
Precipitation  
Precipitation 0.09 in - - ()
Sea Level Pressure  
Sea Level Pressure 29.87 in    
Wind  
Wind Speed 8 mph (WSW)    
Max Wind Speed 14 mph    
Max Gust Speed 38 mph    
Visibility 9 miles    
Events Rain    
Averages and records for this station are not official NWS values.
T = Trace of Precipitation, MM = Missing Value Source: NWS Daily Summary

Daily Weather History Graph

Daily Weather History Graph

Search for Another Location

Airport:

Trip Planner

Search our weather history database for the weather conditions in past years. The results will help you decide how hot, cold, wet, or windy it might be!

Date:

Astronomy

May. 03, 2013 Rise Set
Actual Time 5:59 AM AKDT 10:08 PM AKDT
Civil Twilight 5:05 AM AKDT 11:02 PM AKDT
Nautical Twilight 3:40 AM AKDT 12:30 AM AKDT
Astronomical Twilight Sun does not rise Sun does not rise
Moon 4:02 AM AKDT (5/3) 2:47 PM AKDT (5/3)
Length of Visible Light 17h 56m
Length of Day
16h 09m
Waning Crescent, 35% of the Moon is Illuminated
May 3
Waning Crescent
May 9
New
May 17
First Quarter
May 24
Full
May 31
Last Quarter

Hourly Weather History & Observations

Time (AKDT) Temp. Windchill Dew Point Humidity Pressure Visibility Wind Dir Wind Speed Gust Speed Precip Events Conditions
12:53 AM 44.1 °F - 35.1 °F 71% 29.79 in 10.0 mi North - - N/A   Overcast
1:53 AM 45.0 °F 39.7 °F 34.0 °F 65% 29.79 in 10.0 mi South 10.4 mph 38.0 mph N/A   Overcast
2:53 AM 45.0 °F 43.5 °F 35.1 °F 68% 29.79 in 10.0 mi Variable 3.5 mph - N/A   Overcast
3:53 AM 43.0 °F 39.5 °F 36.0 °F 76% 29.79 in 10.0 mi SW 5.8 mph - 0.00 in Rain Light Rain
4:53 AM 43.0 °F 39.5 °F 36.0 °F 76% 29.79 in 10.0 mi SW 5.8 mph - 0.00 in   Overcast
5:53 AM 43.0 °F 37.7 °F 36.0 °F 76% 29.80 in 10.0 mi West 9.2 mph - 0.01 in   Overcast
6:53 AM 42.1 °F 37.1 °F 36.0 °F 79% 29.80 in 10.0 mi West 8.1 mph - 0.01 in Rain Light Rain
7:53 AM 41.0 °F 35.8 °F 37.9 °F 89% 29.81 in 6.0 mi West 8.1 mph - 0.01 in Rain Light Rain
8:53 AM 41.0 °F 34.3 °F 37.9 °F 89% 29.83 in 10.0 mi West 11.5 mph - 0.03 in Rain Light Rain
9:15 AM 39.2 °F 31.2 °F 37.4 °F 93% 29.83 in 10.0 mi West 13.8 mph - 0.01 in Rain Light Rain
9:53 AM 39.0 °F 31.4 °F 36.0 °F 89% 29.85 in 8.0 mi West 12.7 mph - 0.02 in Rain Light Rain
10:40 AM 37.4 °F 29.8 °F 35.6 °F 93% 29.87 in 8.0 mi West 11.5 mph - 0.00 in   Overcast
10:53 AM 37.9 °F 31.5 °F 35.1 °F 89% 29.87 in 5.0 mi West 9.2 mph - 0.00 in Rain Light Rain
11:32 AM 37.4 °F 30.3 °F 35.6 °F 93% 29.88 in 8.0 mi West 10.4 mph - 0.00 in   Overcast
11:53 AM 39.0 °F 32.8 °F 36.0 °F 89% 29.89 in 5.0 mi West 9.2 mph - 0.01 in   Overcast
12:31 PM 39.2 °F 32.5 °F 35.6 °F 87% 29.90 in 10.0 mi West 10.4 mph - N/A   Overcast
12:53 PM 41.0 °F 35.2 °F 36.0 °F 82% 29.91 in 10.0 mi West 9.2 mph - N/A   Overcast
1:53 PM 39.9 °F 34.5 °F 33.1 °F 77% 29.92 in 10.0 mi West 8.1 mph - N/A   Mostly Cloudy
2:53 PM 39.9 °F 33.9 °F 30.9 °F 70% 29.92 in 10.0 mi West 9.2 mph - N/A   Mostly Cloudy
3:53 PM 41.0 °F 35.2 °F 30.0 °F 65% 29.94 in 10.0 mi West 9.2 mph - N/A   Mostly Cloudy
4:53 PM 39.9 °F 32.9 °F 30.0 °F 68% 29.93 in 10.0 mi WSW 11.5 mph - N/A   Overcast
5:53 PM 41.0 °F 35.8 °F 30.0 °F 65% 29.93 in 10.0 mi WSW 8.1 mph - N/A   Mostly Cloudy
6:53 PM 39.9 °F 35.8 °F 28.0 °F 63% 29.93 in 10.0 mi WSW 5.8 mph - N/A   Mostly Cloudy
7:53 PM 39.9 °F 34.5 °F 28.0 °F 63% 29.93 in 10.0 mi WSW 8.1 mph - N/A   Mostly Cloudy
8:53 PM 39.9 °F 35.8 °F 28.9 °F 65% 29.92 in 10.0 mi WSW 5.8 mph - N/A   Mostly Cloudy
9:53 PM 39.0 °F - 28.0 °F 65% 29.92 in 10.0 mi Calm Calm - N/A   Overcast
10:53 PM 37.9 °F - 28.9 °F 70% 29.93 in 10.0 mi Calm Calm - N/A   Overcast
11:53 PM 37.0 °F - 28.9 °F 73% 29.91 in 10.0 mi Calm Calm - N/A   Overcast